Time,TemperatureF,DewpointF,PressureIn,WindDirection,WindDirectionDegrees,WindSpeedMPH,WindSpeedGustMPH,Humidity,HourlyPrecipIn,Conditions,Clouds,dailyrainin,SoftwareType,DateUTC
2013-03-31 00:04:00,37.4,24.8,30.50,North,0,0.0,-999.9,60,-99.99,,,-99.99,,2013-03-31 04:04:00,
2013-03-31 00:06:00,37.4,24.8,30.50,North,0,0.0,-999.9,60,-99.99,,,-99.99,,2013-03-31 04:06:00,
2013-03-31 00:08:00,37.4,24.8,30.50,North,0,0.0,-999.9,60,-99.99,,,-99.99,,2013-03-31 04:08:00,
2013-03-31 00:14:00,37.4,26.6,30.50,North,0,0.0,-999.9,65,-99.99,,,-99.99,,2013-03-31 04:14:00,
2013-03-31 00:20:00,37.4,26.6,30.50,North,0,0.0,-999.9,65,-99.99,,,-99.99,,2013-03-31 04:20:00,
2013-03-31 00:26:00,35.6,26.6,30.50,North,0,0.0,-999.9,70,-99.99,,,-99.99,,2013-03-31 04:26:00,
2013-03-31 00:32:00,35.6,26.6,30.50,North,0,0.0,-999.9,70,-99.99,,,-99.99,,2013-03-31 04:32:00,
2013-03-31 00:38:00,35.6,26.6,30.50,North,0,0.0,-999.9,70,-99.99,,,-99.99,,2013-03-31 04:38:00,
2013-03-31 00:44:00,35.6,26.6,30.50,North,0,0.0,-999.9,70,-99.99,,,-99.99,,2013-03-31 04:44:00,
2013-03-31 00:50:00,35.6,26.6,30.50,North,0,0.0,-999.9,70,-99.99,,,-99.99,,2013-03-31 04:50:00,
2013-03-31 00:56:00,35.6,26.6,30.50,North,354,1.2,-999.9,70,-99.99,,,-99.99,,2013-03-31 04:56:00,
2013-03-31 01:04:00,35.6,26.6,30.50,North,0,0.0,-999.9,70,-99.99,,,-99.99,,2013-03-31 05:04:00,
2013-03-31 01:10:00,35.6,26.6,30.50,North,0,0.0,-999.9,70,-99.99,,,-99.99,,2013-03-31 05:10:00,
2013-03-31 01:34:00,35.6,26.6,30.50,North,0,0.0,-999.9,70,-99.99,,,-99.99,,2013-03-31 05:34:00,
2013-03-31 01:40:00,35.6,26.6,30.50,North,0,0.0,-999.9,70,-99.99,,,-99.99,,2013-03-31 05:40:00,
2013-03-31 01:46:00,35.6,26.6,30.50,North,0,0.0,-999.9,70,-99.99,,,-99.99,,2013-03-31 05:46:00,
2013-03-31 01:52:00,33.8,26.6,30.50,North,0,0.0,-999.9,75,-99.99,,,-99.99,,2013-03-31 05:52:00,
2013-03-31 01:58:00,33.8,26.6,30.50,North,0,0.0,-999.9,75,-99.99,,,-99.99,,2013-03-31 05:58:00,
2013-03-31 02:14:00,35.6,26.6,30.50,North,0,0.0,-999.9,70,-99.99,,,-99.99,,2013-03-31 06:14:00,
2013-03-31 02:20:00,35.6,26.6,30.50,North,0,0.0,-999.9,70,-99.99,,,-99.99,,2013-03-31 06:20:00,
2013-03-31 02:26:00,33.8,26.6,30.50,North,349,0.0,-999.9,75,-99.99,,,-99.99,,2013-03-31 06:26:00,
2013-03-31 02:34:00,33.8,26.6,30.50,North,355,3.5,-999.9,75,-99.99,,,-99.99,,2013-03-31 06:34:00,
2013-03-31 02:40:00,33.8,26.6,30.50,North,355,3.5,-999.9,75,-99.99,,,-99.99,,2013-03-31 06:40:00,
2013-03-31 02:46:00,33.8,26.6,30.50,North,9,0.0,-999.9,75,-99.99,,,-99.99,,2013-03-31 06:46:00,
2013-03-31 02:54:00,35.6,24.8,30.50,NNW,337,2.3,-999.9,65,-99.99,,,-99.99,,2013-03-31 06:54:00,
2013-03-31 03:00:00,35.6,24.8,30.50,NNW,337,2.3,-999.9,65,-99.99,,,-99.99,,2013-03-31 07:00:00,
2013-03-31 03:06:00,35.6,24.8,30.49,North,0,0.0,-999.9,65,-99.99,,,-99.99,,2013-03-31 07:06:00,
2013-03-31 03:14:00,35.6,26.6,30.50,NNW,346,0.0,-999.9,70,-99.99,,,-99.99,,2013-03-31 07:14:00,
2013-03-31 03:20:00,35.6,26.6,30.50,NNW,346,0.0,-999.9,70,-99.99,,,-99.99,,2013-03-31 07:20:00,
2013-03-31 03:26:00,33.8,26.6,30.49,North,0,0.0,-999.9,75,-99.99,,,-99.99,,2013-03-31 07:26:00,
2013-03-31 03:32:00,32.0,24.8,30.49,North,0,0.0,-999.9,75,-99.99,,,-99.99,,2013-03-31 07:32:00,
2013-03-31 03:38:00,32.0,24.8,30.49,North,0,0.0,-999.9,75,-99.99,,,-99.99,,2013-03-31 07:38:00,
2013-03-31 03:44:00,32.0,24.8,30.49,North,0,0.0,-999.9,75,-99.99,,,-99.99,,2013-03-31 07:44:00,
2013-03-31 03:50:00,32.0,24.8,30.49,North,0,0.0,-999.9,75,-99.99,,,-99.99,,2013-03-31 07:50:00,
2013-03-31 03:56:00,32.0,26.6,30.49,North,0,0.0,-999.9,80,-99.99,,,-99.99,,2013-03-31 07:56:00,
2013-03-31 04:04:00,32.0,26.6,30.48,North,0,0.0,-999.9,80,-99.99,,,-99.99,,2013-03-31 08:04:00,
2013-03-31 04:10:00,32.0,26.6,30.48,North,0,0.0,-999.9,80,-99.99,,,-99.99,,2013-03-31 08:10:00,
2013-03-31 04:16:00,32.0,26.6,30.48,North,10,1.2,-999.9,80,-99.99,,,-99.99,,2013-03-31 08:16:00,
2013-03-31 04:24:00,33.8,28.4,30.48,NNW,327,0.0,-999.9,81,-99.99,,,-99.99,,2013-03-31 08:24:00,
2013-03-31 04:30:00,33.8,28.4,30.48,NNW,327,0.0,-999.9,81,-99.99,,,-99.99,,2013-03-31 08:30:00,
2013-03-31 04:36:00,33.8,26.6,30.48,NW,309,1.2,-999.9,75,-99.99,,,-99.99,,2013-03-31 08:36:00,
2013-03-31 04:44:00,33.8,26.6,30.48,North,0,0.0,-999.9,75,-99.99,,,-99.99,,2013-03-31 08:44:00,
2013-03-31 04:50:00,33.8,26.6,30.48,North,0,0.0,-999.9,75,-99.99,,,-99.99,,2013-03-31 08:50:00,
2013-03-31 04:56:00,32.0,26.6,30.48,WSW,243,0.0,-999.9,80,-99.99,,,-99.99,,2013-03-31 08:56:00,
2013-03-31 05:02:00,32.0,24.8,30.49,North,0,0.0,-999.9,75,-99.99,,,-99.99,,2013-03-31 09:02:00,
2013-03-31 05:08:00,32.0,24.8,30.49,North,0,0.0,-999.9,75,-99.99,,,-99.99,,2013-03-31 09:08:00,
2013-03-31 05:14:00,32.0,26.6,30.49,North,0,0.0,-999.9,80,-99.99,,,-99.99,,2013-03-31 09:14:00,
2013-03-31 05:20:00,32.0,26.6,30.49,North,0,0.0,-999.9,80,-99.99,,,-99.99,,2013-03-31 09:20:00,
2013-03-31 05:26:00,32.0,26.6,30.48,North,0,0.0,-999.9,80,-99.99,,,-99.99,,2013-03-31 09:26:00,
2013-03-31 05:34:00,30.2,26.6,30.48,North,0,0.0,-999.9,86,-99.99,,,-99.99,,2013-03-31 09:34:00,
2013-03-31 05:40:00,30.2,26.6,30.48,North,0,0.0,-999.9,86,-99.99,,,-99.99,,2013-03-31 09:40:00,
2013-03-31 05:46:00,30.2,26.6,30.48,North,0,0.0,-999.9,86,-99.99,,,-99.99,,2013-03-31 09:46:00,
2013-03-31 05:54:00,30.2,26.6,30.48,North,0,0.0,-999.9,86,-99.99,,,-99.99,,2013-03-31 09:54:00,
2013-03-31 06:00:00,30.2,26.6,30.48,North,0,0.0,-999.9,86,-99.99,,,-99.99,,2013-03-31 10:00:00,
2013-03-31 06:06:00,30.2,26.6,30.48,North,0,0.0,-999.9,86,-99.99,,,-99.99,,2013-03-31 10:06:00,
2013-03-31 06:14:00,30.2,26.6,30.48,North,0,0.0,-999.9,86,-99.99,,,-99.99,,2013-03-31 10:14:00,
2013-03-31 06:20:00,30.2,26.6,30.48,North,0,0.0,-999.9,86,-99.99,,,-99.99,,2013-03-31 10:20:00,
2013-03-31 06:26:00,30.2,26.6,30.48,North,0,0.0,-999.9,86,-99.99,,,-99.99,,2013-03-31 10:26:00,
2013-03-31 06:34:00,30.2,26.6,30.47,North,0,0.0,-999.9,86,-99.99,,,-99.99,,2013-03-31 10:34:00,
2013-03-31 06:40:00,30.2,26.6,30.47,North,0,0.0,-999.9,86,-99.99,,,-99.99,,2013-03-31 10:40:00,
2013-03-31 06:48:00,30.2,26.6,30.47,North,0,0.0,-999.9,86,-99.99,,,-99.99,,2013-03-31 10:48:00,
2013-03-31 06:54:00,30.2,26.6,30.47,North,0,0.0,-999.9,86,-99.99,,,-99.99,,2013-03-31 10:54:00,
2013-03-31 07:00:00,30.2,26.6,30.47,North,0,0.0,-999.9,86,-99.99,,,-99.99,,2013-03-31 11:00:00,
2013-03-31 07:06:00,30.2,26.6,30.47,North,0,0.0,-999.9,86,-99.99,,,-99.99,,2013-03-31 11:06:00,
2013-03-31 07:14:00,30.2,26.6,30.47,North,0,0.0,-999.9,86,-99.99,,,-99.99,,2013-03-31 11:14:00,
2013-03-31 07:20:00,30.2,26.6,30.47,North,0,0.0,-999.9,86,-99.99,,,-99.99,,2013-03-31 11:20:00,
2013-03-31 07:26:00,30.2,26.6,30.47,North,0,0.0,-999.9,86,-99.99,,,-99.99,,2013-03-31 11:26:00,
2013-03-31 07:34:00,30.2,26.6,30.47,North,0,0.0,-999.9,86,-99.99,,,-99.99,,2013-03-31 11:34:00,
2013-03-31 07:40:00,30.2,26.6,30.47,North,0,0.0,-999.9,86,-99.99,,,-99.99,,2013-03-31 11:40:00,
2013-03-31 07:46:00,32.0,28.4,30.47,North,0,0.0,-999.9,87,-99.99,,,-99.99,,2013-03-31 11:46:00,
2013-03-31 07:54:00,32.0,28.4,30.47,NE,44,0.0,-999.9,87,-99.99,,,-99.99,,2013-03-31 11:54:00,
2013-03-31 08:00:00,32.0,28.4,30.47,NE,44,0.0,-999.9,87,-99.99,,,-99.99,,2013-03-31 12:00:00,
2013-03-31 08:06:00,33.8,28.4,30.47,NNE,28,4.6,-999.9,81,-99.99,,,-99.99,,2013-03-31 12:06:00,
2013-03-31 08:14:00,33.8,26.6,30.47,NNE,31,4.6,-999.9,75,-99.99,,,-99.99,,2013-03-31 12:14:00,
2013-03-31 08:20:00,33.8,26.6,30.47,NNE,31,4.6,-999.9,75,-99.99,,,-99.99,,2013-03-31 12:20:00,
2013-03-31 08:26:00,35.6,28.4,30.47,NE,42,2.3,-999.9,75,-99.99,,,-99.99,,2013-03-31 12:26:00,
2013-03-31 08:34:00,35.6,28.4,30.46,NE,47,3.5,-999.9,75,-99.99,,,-99.99,,2013-03-31 12:34:00,
2013-03-31 08:40:00,35.6,28.4,30.46,NE,47,3.5,-999.9,75,-99.99,,,-99.99,,2013-03-31 12:40:00,
2013-03-31 08:46:00,37.4,28.4,30.45,NNE,23,3.5,-999.9,70,-99.99,,,-99.99,,2013-03-31 12:46:00,
2013-03-31 08:52:00,37.4,28.4,30.45,ENE,69,2.3,-999.9,70,-99.99,,,-99.99,,2013-03-31 12:52:00,
2013-03-31 08:58:00,37.4,28.4,30.45,ENE,69,2.3,-999.9,70,-99.99,,,-99.99,,2013-03-31 12:58:00,
2013-03-31 09:04:00,39.2,28.4,30.45,ENE,78,2.3,-999.9,65,-99.99,,,-99.99,,2013-03-31 13:04:00,
2013-03-31 09:10:00,39.2,28.4,30.45,ENE,78,2.3,-999.9,65,-99.99,,,-99.99,,2013-03-31 13:10:00,
2013-03-31 09:16:00,41.0,26.6,30.45,ESE,112,1.2,-999.9,57,-99.99,,,-99.99,,2013-03-31 13:16:00,
2013-03-31 09:24:00,42.8,26.6,30.45,ESE,103,0.0,-999.9,53,-99.99,,,-99.99,,2013-03-31 13:24:00,
2013-03-31 09:30:00,42.8,26.6,30.45,ESE,103,0.0,-999.9,53,-99.99,,,-99.99,,2013-03-31 13:30:00,
2013-03-31 09:36:00,44.6,26.6,30.44,SE,126,1.2,-999.9,49,-99.99,,,-99.99,,2013-03-31 13:36:00,
2013-03-31 09:42:00,44.6,26.6,30.43,SE,144,1.2,-999.9,49,-99.99,,,-99.99,,2013-03-31 13:42:00,
2013-03-31 09:48:00,44.6,26.6,30.43,SE,144,1.2,-999.9,49,-99.99,,,-99.99,,2013-03-31 13:48:00,
2013-03-31 09:54:00,44.6,26.6,30.43,SE,142,5.8,-999.9,49,-99.99,,,-99.99,,2013-03-31 13:54:00,
2013-03-31 10:00:00,44.6,26.6,30.43,SE,142,5.8,-999.9,49,-99.99,,,-99.99,,2013-03-31 14:00:00,
2013-03-31 10:06:00,46.4,28.4,30.43,South,172,2.3,-999.9,50,-99.99,,,-99.99,,2013-03-31 14:06:00,
2013-03-31 10:14:00,46.4,28.4,30.43,SSE,154,3.5,-999.9,50,-99.99,,,-99.99,,2013-03-31 14:14:00,
2013-03-31 10:20:00,46.4,28.4,30.43,SSE,154,3.5,-999.9,50,-99.99,,,-99.99,,2013-03-31 14:20:00,
2013-03-31 10:26:00,46.4,28.4,30.43,SE,130,3.5,-999.9,50,-99.99,,,-99.99,,2013-03-31 14:26:00,
2013-03-31 10:34:00,48.2,28.4,30.42,SE,142,9.2,-999.9,46,-99.99,,,-99.99,,2013-03-31 14:34:00,
2013-03-31 10:40:00,48.2,28.4,30.42,SE,142,9.2,-999.9,46,-99.99,,,-99.99,,2013-03-31 14:40:00,
2013-03-31 10:46:00,50.0,30.2,30.41,SSE,151,3.5,-999.9,47,-99.99,,,-99.99,,2013-03-31 14:46:00,
2013-03-31 10:52:00,48.2,28.4,30.41,South,190,5.8,-999.9,46,-99.99,,,-99.99,,2013-03-31 14:52:00,
2013-03-31 10:58:00,48.2,28.4,30.41,South,190,5.8,-999.9,46,-99.99,,,-99.99,,2013-03-31 14:58:00,
2013-03-31 11:04:00,50.0,30.2,30.41,SSE,165,4.6,-999.9,47,-99.99,,,-99.99,,2013-03-31 15:04:00,
2013-03-31 11:10:00,50.0,30.2,30.41,SSE,165,4.6,-999.9,47,-99.99,,,-99.99,,2013-03-31 15:10:00,
2013-03-31 11:16:00,51.8,30.2,30.41,South,185,5.8,-999.9,44,-99.99,,,-99.99,,2013-03-31 15:16:00,
2013-03-31 11:24:00,51.8,28.4,30.40,South,184,5.8,-999.9,41,-99.99,,,-99.99,,2013-03-31 15:24:00,
2013-03-31 11:30:00,53.6,28.4,30.40,South,178,8.1,-999.9,38,-99.99,,,-99.99,,2013-03-31 15:30:00,
2013-03-31 11:36:00,53.6,28.4,30.40,South,178,8.1,-999.9,38,-99.99,,,-99.99,,2013-03-31 15:36:00,
2013-03-31 11:44:00,53.6,28.4,30.39,South,176,8.1,-999.9,38,-99.99,,,-99.99,,2013-03-31 15:44:00,
2013-03-31 11:50:00,53.6,28.4,30.39,South,176,8.1,-999.9,38,-99.99,,,-99.99,,2013-03-31 15:50:00,
2013-03-31 11:56:00,53.6,26.6,30.38,SSW,210,2.3,-999.9,35,-99.99,,,-99.99,,2013-03-31 15:56:00,
2013-03-31 12:04:00,55.4,28.4,30.38,South,181,9.2,-999.9,36,-99.99,,,-99.99,,2013-03-31 16:04:00,
2013-03-31 12:10:00,55.4,28.4,30.38,South,181,9.2,-999.9,36,-99.99,,,-99.99,,2013-03-31 16:10:00,
2013-03-31 12:16:00,55.4,26.6,30.37,South,171,12.7,-999.9,33,-99.99,,,-99.99,,2013-03-31 16:16:00,
2013-03-31 12:22:00,55.4,26.6,30.37,South,173,10.4,-999.9,33,-99.99,,,-99.99,,2013-03-31 16:22:00,
2013-03-31 12:28:00,55.4,26.6,30.37,South,173,10.4,-999.9,33,-99.99,,,-99.99,,2013-03-31 16:28:00,
2013-03-31 12:34:00,55.4,26.6,30.36,South,181,8.1,-999.9,33,-99.99,,,-99.99,,2013-03-31 16:34:00,
2013-03-31 12:40:00,55.4,26.6,30.36,South,181,8.1,-999.9,33,-99.99,,,-99.99,,2013-03-31 16:40:00,
2013-03-31 12:46:00,57.2,26.6,30.35,SSW,199,10.4,-999.9,31,-99.99,,,-99.99,,2013-03-31 16:46:00,
2013-03-31 12:52:00,55.4,26.6,30.34,South,183,6.9,-999.9,33,-99.99,,,-99.99,,2013-03-31 16:52:00,
2013-03-31 12:58:00,55.4,26.6,30.34,South,183,6.9,-999.9,33,-99.99,,,-99.99,,2013-03-31 16:58:00,
2013-03-31 13:04:00,57.2,28.4,30.34,SSE,155,13.8,-999.9,33,-99.99,,,-99.99,,2013-03-31 17:04:00,
2013-03-31 13:10:00,57.2,28.4,30.34,SSE,155,13.8,-999.9,33,-99.99,,,-99.99,,2013-03-31 17:10:00,
2013-03-31 13:16:00,55.4,28.4,30.33,SE,135,8.1,-999.9,36,-99.99,,,-99.99,,2013-03-31 17:16:00,
2013-03-31 13:24:00,55.4,30.2,30.33,South,178,6.9,-999.9,38,-99.99,,,-99.99,,2013-03-31 17:24:00,
2013-03-31 13:30:00,55.4,30.2,30.33,South,178,6.9,-999.9,38,-99.99,,,-99.99,,2013-03-31 17:30:00,
2013-03-31 13:36:00,55.4,30.2,30.32,SSE,160,10.4,-999.9,38,-99.99,,,-99.99,,2013-03-31 17:36:00,
2013-03-31 13:44:00,55.4,30.2,30.32,South,176,10.4,-999.9,38,-99.99,,,-99.99,,2013-03-31 17:44:00,
2013-03-31 13:50:00,55.4,30.2,30.32,South,176,10.4,-999.9,38,-99.99,,,-99.99,,2013-03-31 17:50:00,
2013-03-31 13:56:00,55.4,32.0,30.32,SSE,157,12.7,-999.9,41,-99.99,,,-99.99,,2013-03-31 17:56:00,
2013-03-31 14:04:00,55.4,33.8,30.32,South,171,12.7,-999.9,44,-99.99,,,-99.99,,2013-03-31 18:04:00,
2013-03-31 14:14:00,53.6,33.8,30.31,South,170,15.0,-999.9,47,-99.99,,,-99.99,,2013-03-31 18:14:00,
2013-03-31 14:20:00,53.6,33.8,30.31,South,170,15.0,-999.9,47,-99.99,,,-99.99,,2013-03-31 18:20:00,
2013-03-31 14:26:00,53.6,35.6,30.30,SSE,165,10.4,-999.9,51,-99.99,,,-99.99,,2013-03-31 18:26:00,
2013-03-31 14:34:00,55.4,37.4,30.30,SE,146,9.2,-999.9,51,-99.99,,,-99.99,,2013-03-31 18:34:00,
2013-03-31 14:40:00,55.4,37.4,30.30,SE,146,9.2,-999.9,51,-99.99,,,-99.99,,2013-03-31 18:40:00,
2013-03-31 14:46:00,55.4,37.4,30.29,SE,145,13.8,-999.9,51,-99.99,,,-99.99,,2013-03-31 18:46:00,
2013-03-31 14:54:00,55.4,37.4,30.29,SSE,166,9.2,-999.9,51,-99.99,,,-99.99,,2013-03-31 18:54:00,
2013-03-31 15:00:00,55.4,37.4,30.29,SSE,166,9.2,-999.9,51,-99.99,,,-99.99,,2013-03-31 19:00:00,
2013-03-31 15:08:00,53.6,35.6,30.29,SSE,160,13.8,-999.9,51,-99.99,,,-99.99,,2013-03-31 19:08:00,
2013-03-31 15:14:00,53.6,37.4,30.28,SE,143,3.5,-999.9,54,-99.99,,,-99.99,,2013-03-31 19:14:00,
2013-03-31 15:20:00,53.6,37.4,30.28,SE,143,3.5,-999.9,54,-99.99,,,-99.99,,2013-03-31 19:20:00,
2013-03-31 15:26:00,53.6,37.4,30.27,SSE,159,8.1,-999.9,54,-99.99,,,-99.99,,2013-03-31 19:26:00,
2013-03-31 15:36:00,53.6,37.4,30.27,SSE,163,6.9,-999.9,54,-99.99,,,-99.99,,2013-03-31 19:36:00,
2013-03-31 15:44:00,51.8,37.4,30.27,SE,137,8.1,-999.9,58,-99.99,,,-99.99,,2013-03-31 19:44:00,
2013-03-31 15:50:00,51.8,37.4,30.27,SE,137,8.1,-999.9,58,-99.99,,,-99.99,,2013-03-31 19:50:00,
2013-03-31 15:56:00,51.8,35.6,30.26,SSE,153,11.5,-999.9,54,-99.99,,,-99.99,,2013-03-31 19:56:00,
2013-03-31 16:02:00,51.8,35.6,30.26,SE,146,6.9,-999.9,54,-99.99,,,-99.99,,2013-03-31 20:02:00,
2013-03-31 16:08:00,51.8,35.6,30.26,SE,146,6.9,-999.9,54,-99.99,,,-99.99,,2013-03-31 20:08:00,
2013-03-31 16:14:00,51.8,35.6,30.26,South,187,8.1,-999.9,54,-99.99,,,-99.99,,2013-03-31 20:14:00,
2013-03-31 16:20:00,51.8,35.6,30.26,South,187,8.1,-999.9,54,-99.99,,,-99.99,,2013-03-31 20:20:00,
2013-03-31 16:26:00,51.8,35.6,30.25,SSE,148,8.1,-999.9,54,-99.99,,,-99.99,,2013-03-31 20:26:00,
2013-03-31 16:36:00,51.8,35.6,30.25,SSE,159,5.8,-999.9,54,-99.99,,,-99.99,,2013-03-31 20:36:00,
2013-03-31 16:42:00,51.8,35.6,30.25,SSE,161,6.9,-999.9,54,-99.99,,,-99.99,,2013-03-31 20:42:00,
2013-03-31 16:48:00,51.8,35.6,30.25,SSE,161,6.9,-999.9,54,-99.99,,,-99.99,,2013-03-31 20:48:00,
2013-03-31 16:54:00,51.8,35.6,30.24,SSE,150,9.2,-999.9,54,-99.99,,,-99.99,,2013-03-31 20:54:00,
2013-03-31 17:00:00,51.8,35.6,30.24,SSE,150,9.2,-999.9,54,-99.99,,,-99.99,,2013-03-31 21:00:00,
2013-03-31 17:06:00,51.8,37.4,30.24,SSE,159,15.0,-999.9,58,-99.99,,,-99.99,,2013-03-31 21:06:00,
2013-03-31 17:14:00,51.8,37.4,30.23,SSE,162,11.5,-999.9,58,-99.99,,,-99.99,,2013-03-31 21:14:00,
2013-03-31 17:20:00,51.8,37.4,30.23,SSE,162,11.5,-999.9,58,-99.99,,,-99.99,,2013-03-31 21:20:00,
2013-03-31 17:26:00,50.0,35.6,30.22,SSE,152,6.9,-999.9,58,-99.99,,,-99.99,,2013-03-31 21:26:00,
2013-03-31 17:32:00,50.0,35.6,30.22,SSE,152,11.5,-999.9,58,-99.99,,,-99.99,,2013-03-31 21:32:00,
2013-03-31 17:38:00,50.0,35.6,30.22,SSE,152,11.5,-999.9,58,-99.99,,,-99.99,,2013-03-31 21:38:00,
2013-03-31 17:44:00,50.0,35.6,30.22,SSE,151,16.1,-999.9,58,-99.99,,,-99.99,,2013-03-31 21:44:00,
2013-03-31 17:50:00,50.0,35.6,30.22,SSE,151,16.1,-999.9,58,-99.99,,,-99.99,,2013-03-31 21:50:00,
2013-03-31 17:56:00,50.0,39.2,30.22,South,169,16.1,-999.9,66,-99.99,,,-99.99,,2013-03-31 21:56:00,
2013-03-31 18:04:00,48.2,39.2,30.22,SSE,167,10.4,-999.9,71,-99.99,,,-99.99,,2013-03-31 22:04:00,
2013-03-31 18:10:00,48.2,39.2,30.22,SSE,167,10.4,-999.9,71,-99.99,,,-99.99,,2013-03-31 22:10:00,
2013-03-31 18:16:00,48.2,41.0,30.22,South,177,4.6,-999.9,76,-99.99,,,-99.99,,2013-03-31 22:16:00,
2013-03-31 18:24:00,48.2,41.0,30.21,SSE,162,5.8,-999.9,76,-99.99,,,-99.99,,2013-03-31 22:24:00,
2013-03-31 18:30:00,48.2,41.0,30.21,SSE,162,5.8,-999.9,76,-99.99,,,-99.99,,2013-03-31 22:30:00,
2013-03-31 18:36:00,46.4,41.0,30.21,SSE,168,9.2,-999.9,81,-99.99,,,-99.99,,2013-03-31 22:36:00,
2013-03-31 18:42:00,46.4,41.0,30.20,SSW,203,2.3,-999.9,81,-99.99,,,-99.99,,2013-03-31 22:42:00,
2013-03-31 18:48:00,46.4,41.0,30.20,SSW,203,2.3,-999.9,81,-99.99,,,-99.99,,2013-03-31 22:48:00,
2013-03-31 18:54:00,46.4,41.0,30.19,SSE,163,8.1,-999.9,81,-99.99,,,-99.99,,2013-03-31 22:54:00,
2013-03-31 19:00:00,46.4,41.0,30.19,SSE,163,8.1,-999.9,81,-99.99,,,-99.99,,2013-03-31 23:00:00,
2013-03-31 19:06:00,46.4,41.0,30.19,SSE,168,5.8,-999.9,81,-99.99,,,-99.99,,2013-03-31 23:06:00,
2013-03-31 19:12:00,46.4,42.8,30.18,South,171,3.5,-999.9,87,-99.99,,,-99.99,,2013-03-31 23:12:00,
2013-03-31 19:18:00,46.4,42.8,30.18,South,171,3.5,-999.9,87,-99.99,,,-99.99,,2013-03-31 23:18:00,
2013-03-31 19:24:00,46.4,42.8,30.17,SSW,202,3.5,-999.9,87,-99.99,,,-99.99,,2013-03-31 23:24:00,
2013-03-31 19:30:00,46.4,42.8,30.17,SSW,202,3.5,-999.9,87,-99.99,,,-99.99,,2013-03-31 23:30:00,
2013-03-31 19:36:00,46.4,42.8,30.16,South,191,5.8,-999.9,87,-99.99,,,-99.99,,2013-03-31 23:36:00,
2013-03-31 19:44:00,46.4,42.8,30.16,SSW,204,5.8,-999.9,87,-99.99,,,-99.99,,2013-03-31 23:44:00,
2013-03-31 19:50:00,46.4,42.8,30.16,SSW,204,5.8,-999.9,87,-99.99,,,-99.99,,2013-03-31 23:50:00,
2013-03-31 19:56:00,46.4,42.8,30.15,South,179,3.5,-999.9,87,-99.99,,,-99.99,,2013-03-31 23:56:00,
2013-03-31 20:14:00,46.4,42.8,30.14,SW,219,0.0,-999.9,87,-99.99,,,-99.99,,2013-04-01 00:14:00,
2013-03-31 20:20:00,46.4,42.8,30.14,SW,219,0.0,-999.9,87,-99.99,,,-99.99,,2013-04-01 00:20:00,
2013-03-31 21:24:00,44.6,42.8,30.12,SE,142,4.6,-999.9,93,-99.99,,,-99.99,,2013-04-01 01:24:00,
2013-03-31 21:30:00,44.6,42.8,30.12,SE,142,4.6,-999.9,93,-99.99,,,-99.99,,2013-04-01 01:30:00,
2013-03-31 21:36:00,44.6,42.8,30.12,SW,232,0.0,-999.9,93,-99.99,,,-99.99,,2013-04-01 01:36:00,
2013-03-31 21:42:00,44.6,42.8,30.11,North,0,0.0,-999.9,93,-99.99,,,-99.99,,2013-04-01 01:42:00,
2013-03-31 21:48:00,44.6,42.8,30.11,North,0,0.0,-999.9,93,-99.99,,,-99.99,,2013-04-01 01:48:00,
2013-03-31 21:54:00,44.6,42.8,30.11,North,0,0.0,-999.9,93,-99.99,,,-99.99,,2013-04-01 01:54:00,
2013-03-31 22:00:00,44.6,42.8,30.11,North,0,0.0,-999.9,93,-99.99,,,-99.99,,2013-04-01 02:00:00,
2013-03-31 22:06:00,46.4,44.6,30.10,North,0,0.0,-999.9,93,-99.99,,,-99.99,,2013-04-01 02:06:00,
2013-03-31 22:14:00,46.4,44.6,30.09,North,0,0.0,-999.9,93,-99.99,,,-99.99,,2013-04-01 02:14:00,
2013-03-31 22:20:00,46.4,44.6,30.09,North,0,0.0,-999.9,93,-99.99,,,-99.99,,2013-04-01 02:20:00,
2013-03-31 22:26:00,46.4,44.6,30.09,North,0,0.0,-999.9,93,-99.99,,,-99.99,,2013-04-01 02:26:00,
2013-03-31 22:32:00,46.4,44.6,30.09,North,0,0.0,-999.9,93,-99.99,,,-99.99,,2013-04-01 02:32:00,
2013-03-31 22:38:00,46.4,44.6,30.09,North,0,0.0,-999.9,93,-99.99,,,-99.99,,2013-04-01 02:38:00,
2013-03-31 22:44:00,46.4,44.6,30.09,North,0,0.0,-999.9,93,-99.99,,,-99.99,,2013-04-01 02:44:00,
2013-03-31 22:50:00,46.4,44.6,30.09,North,0,0.0,-999.9,93,-99.99,,,-99.99,,2013-04-01 02:50:00,
2013-03-31 22:56:00,46.4,44.6,30.08,North,0,0.0,-999.9,93,-99.99,,,-99.99,,2013-04-01 02:56:00,
2013-03-31 23:02:00,46.4,44.6,30.08,North,0,0.0,-999.9,93,-99.99,,,-99.99,,2013-04-01 03:02:00,
2013-03-31 23:08:00,46.4,44.6,30.08,North,0,0.0,-999.9,93,-99.99,,,-99.99,,2013-04-01 03:08:00,
2013-03-31 23:14:00,46.4,44.6,30.06,WNW,302,1.2,-999.9,93,-99.99,,,-99.99,,2013-04-01 03:14:00,
2013-03-31 23:20:00,46.4,44.6,30.06,WNW,302,1.2,-999.9,93,-99.99,,,-99.99,,2013-04-01 03:20:00,
2013-03-31 23:26:00,46.4,44.6,30.06,WNW,302,1.2,-999.9,93,-99.99,,,-99.99,,2013-04-01 03:26:00,
2013-03-31 23:32:00,46.4,44.6,30.06,NNW,336,0.0,-999.9,93,-99.99,,,-99.99,,2013-04-01 03:32:00,
2013-03-31 23:38:00,46.4,44.6,30.06,NNW,336,0.0,-999.9,93,-99.99,,,-99.99,,2013-04-01 03:38:00,
2013-03-31 23:44:00,44.6,42.8,30.06,NNW,334,0.0,-999.9,93,-99.99,,,-99.99,,2013-04-01 03:44:00,
2013-03-31 23:50:00,44.6,42.8,30.06,NNW,334,0.0,-999.9,93,-99.99,,,-99.99,,2013-04-01 03:50:00,
2013-03-31 23:56:00,46.4,46.4,30.06,NW,306,0.0,-999.9,100,-99.99,,,-99.99,,2013-04-01 03:56:00,